This demonstration page uses our WeatherBlox Daily Observations layout. Learn more.

Hourly Observations for November 3, 2020

Temp ( °F °C ) Dew Point ( °F °C ) Humidity (%) Winds ( mph kmh ) Pressure ( in mb ) Visibility ( mi km ) Precip ( " mm )
12:15 am 00:15 Clear 41 5 21 -6 45 45 SSW 8 13 30.05 1018 10 16.0934 0 0
12:35 am 00:35 Clear 41 5 21 -6 45 45 SW 7 11 30.05 1018 10 16.0934 0 0
12:55 am 00:55 Clear 41 5 19 -7 42 42 SW 7 11 30.06 1018 10 16.0934 0 0
1:15 am 01:15 Clear 41 5 19 -7 42 42 SW 5 7 30.07 1018 10 16.0934 0 0
1:35 am 01:35 Clear 43 6 19 -7 39 39 WSW 6 9 30.08 1019 10 16.0934 0 0
1:55 am 01:55 Clear 39 4 21 -6 48 48 SW 3 6 30.1 1019 10 16.0934 0 0
2:15 am 02:15 Clear 41 5 19 -7 42 42 Calm 30.1 1019 10 16.0934 0 0
2:35 am 02:35 Clear 37 3 21 -6 52 52 Calm 30.12 1020 10 16.0934 0 0
2:55 am 02:55 Clear 37 3 21 -6 52 52 W 5 7 30.12 1020 10 16.0934 0 0
3:15 am 03:15 Clear 37 3 23 -5 56 56 W 5 7 30.12 1020 10 16.0934 0 0
3:35 am 03:35 Clear 37 3 21 -6 52 52 Calm 30.13 1020 10 16.0934 0 0
3:55 am 03:55 Clear 37 3 23 -5 56 56 Calm 30.13 1020 10 16.0934 0 0
4:15 am 04:15 Clear 37 3 23 -5 56 56 WSW 7 11 30.13 1020 10 16.0934 0 0
4:35 am 04:35 Clear 37 3 21 -6 52 52 W 5 7 30.14 1021 10 16.0934 0 0
4:55 am 04:55 Clear 39 4 21 -6 48 48 WSW 7 11 30.14 1021 10 16.0934 0 0
5:15 am 05:15 Clear 41 5 19 -7 42 42 W 8 13 30.14 1021 10 16.0934 0 0
5:35 am 05:35 Clear 41 5 19 -7 42 42 W 8 13 30.14 1021 10 16.0934 0 0
5:55 am 05:55 Clear 41 5 21 -6 45 45 W 9 15 30.14 1021 10 16.0934 0 0
6:15 am 06:15 Clear 43 6 21 -6 42 42 W 12 19 30.15 1021 10 16.0934 0 0
6:35 am 06:35 Clear 43 6 21 -6 42 42 WNW 12 19 30.15 1021 10 16.0934 0 0
6:55 am 06:55 Sunny 43 6 21 -6 42 42 WNW 14 22 30.15 1021 10 16.0934 0 0
7:15 am 07:15 Sunny 45 7 21 -6 39 39 WNW 15 24 30.15 1021 10 16.0934 0 0
7:35 am 07:35 Sunny 45 7 21 -6 39 39 WNW 13 20 30.15 1021 10 16.0934 0 0
7:55 am 07:55 Sunny 46 8 21 -6 37 37 WNW 16 26 30.15 1021 10 16.0934 0 0
8:15 am 08:15 Sunny 46 8 23 -5 40 40 WNW 16 26 30.16 1021 10 16.0934 0 0
8:35 am 08:35 Sunny 48 9 23 -5 37 37 WNW 18 30 30.17 1022 10 16.0934 0 0
8:55 am 08:55 Sunny 50 10 25 -4 37 37 WNW 24 39 30.16 1021 10 16.0934 0 0
9:15 am 09:15 Sunny 50 10 27 -3 40 40 WNW 29 46 30.16 1021 10 16.0934 0 0
9:35 am 09:35 Sunny 50 10 27 -3 40 40 W 24 39 30.17 1022 10 16.0934 0 0
9:55 am 09:55 Sunny 52 11 27 -3 38 38 WNW 26 43 30.16 1021 10 16.0934 0 0
10:15 am 10:15 Sunny 52 11 28 -2 41 41 WNW 23 37 30.16 1021 10 16.0934 0 0
10:35 am 10:35 Sunny 54 12 28 -2 38 38 WNW 23 37 30.17 1022 10 16.0934 0 0
10:55 am 10:55 Sunny 54 12 28 -2 38 38 WNW 25 41 30.15 1021 10 16.0934 0 0
11:15 am 11:15 Sunny 54 12 28 -2 38 38 NW 25 41 30.15 1021 10 16.0934 0 0
11:35 am 11:35 Sunny N/A N/A N/A WNW 16 26 N/A 10 16.0934 0 0
11:55 am 11:55 Sunny 55 13 30 -1 38 38 WNW 23 37 30.13 1020 10 16.0934 0 0
12:15 pm 12:15 Sunny N/A N/A N/A NW 18 30 N/A 10 16.0934 0 0
12:35 pm 12:35 Sunny N/A N/A N/A WNW 18 30 N/A 10 16.0934 0 0
12:55 pm 12:55 Sunny N/A N/A N/A NW 17 28 N/A 10 16.0934 0 0
1:15 pm 13:15 Sunny N/A N/A N/A NNW 14 22 N/A 10 16.0934 0 0
1:35 pm 13:35 Sunny N/A N/A N/A WNW 16 26 N/A 10 16.0934 0 0
1:55 pm 13:55 Sunny N/A N/A N/A NW 14 22 N/A 10 16.0934 0 0
2:15 pm 14:15 Sunny N/A N/A N/A NNW 12 19 N/A 10 16.0934 0 0
2:35 pm 14:35 Sunny N/A N/A N/A NW 9 15 N/A 10 16.0934 0 0
2:55 pm 14:55 Sunny N/A N/A N/A W 8 13 N/A 10 16.0934 0 0
3:15 pm 15:15 Sunny N/A N/A N/A WNW 12 19 N/A 10 16.0934 0 0
3:35 pm 15:35 Sunny N/A N/A N/A W 7 11 N/A 10 16.0934 0 0
3:55 pm 15:55 Sunny N/A N/A N/A W 6 9 N/A 10 16.0934 0 0
4:15 pm 16:15 Sunny N/A N/A N/A Calm N/A 10 16.0934 0 0
4:35 pm 16:35 Sunny N/A N/A N/A Calm N/A 10 16.0934 0 0
4:55 pm 16:55 Sunny N/A N/A N/A Calm N/A 10 16.0934 0 0
5:15 pm 17:15 Clear N/A N/A N/A W 5 7 N/A 10 16.0934 0 0
5:35 pm 17:35 Clear N/A N/A N/A W 5 7 N/A 10 16.0934 0 0
5:55 pm 17:55 Clear 54 12 34 1 47 47 W 6 9 30.2 1023 10 16.0934 0 0
6:15 pm 18:15 Clear 52 11 32 0 47 47 NW 5 7 30.21 1023 10 16.0934 0 0
6:35 pm 18:35 Clear 54 12 32 0 44 44 Calm 30.21 1023 10 16.0934 0 0
6:55 pm 18:55 Clear 50 10 34 1 54 54 NW 6 9 30.23 1024 10 16.0934 0 0
7:15 pm 19:15 Clear 52 11 34 1 50 50 Calm 30.23 1024 10 16.0934 0 0
7:35 pm 19:35 Clear 46 8 36 2 66 66 SSW 3 6 30.25 1024 10 16.0934 0 0
7:55 pm 19:55 Clear 50 10 34 1 54 54 WSW 6 9 30.26 1025 10 16.0934 0 0
8:15 pm 20:15 Clear 50 10 34 1 54 54 S 5 7 30.26 1025 10 16.0934 0 0
8:35 pm 20:35 Clear 46 8 34 1 62 62 SSW 5 7 30.27 1025 10 16.0934 0 0
8:55 pm 20:55 Clear 45 7 36 2 71 71 Calm 30.28 1025 10 16.0934 0 0
9:15 pm 21:15 Clear 45 7 36 2 71 71 W 3 6 30.29 1026 10 16.0934 0 0
9:35 pm 21:35 Clear 43 6 36 2 76 76 Calm 30.3 1026 10 16.0934 0 0
9:55 pm 21:55 Clear 45 7 36 2 71 71 Calm 30.3 1026 10 16.0934 0 0
10:15 pm 22:15 Clear 43 6 36 2 76 76 Calm 30.32 1027 10 16.0934 0 0
10:35 pm 22:35 Clear 41 5 36 2 81 81 Calm 30.32 1027 10 16.0934 0 0
10:55 pm 22:55 Clear 41 5 36 2 81 81 NW 3 6 30.33 1027 10 16.0934 0 0
11:15 pm 23:15 Clear 39 4 36 2 87 87 Calm 30.34 1027 10 16.0934 0 0
11:35 pm 23:35 Clear 41 5 36 2 81 81 Calm 30.33 1027 10 16.0934 0 0
11:55 pm 23:55 Clear 39 4 36 2 87 87 Calm 30.35 1028 10 16.0934 0 0

Powered by AerisWeather